OBJECT D, 44313

Orbit data source: Space-Track

You're viewing an Uncataloged Satellite

Recently launched and/or uncataloged satellites may have evolving metadata. Metadata may include but not limited to: Owner, Maufacturer, Bus, Motor, and Mission.

OBJECT D, 44313 is a satellite owned by Changsha Tianyi (CN) in LEO that was launched on Wed, 05 Jun 2019 UTC via a CHANG ZHENG 11 launch vehicle from the Yellow Sea Launch Area, China (YSLA). Unknown objects in Earth's orbit typically refer to objects detected orbiting the Earth but have not yet been identified or cataloged. These objects could be anything from previously untracked satellites, spent rocket stages, debris from satellite collisions, or even natural meteoroids temporarily captured by Earth's gravity.

Loading next visibility...
Identifier
44313, 2019-032D
Orbit
LEO
Last TLE update
13 hours ago
Origin
Flag of CNCTYK (CN / PRC)
Manufacturer
Changsha Tianyi
Mission
Operational Commercial Imaging
Bus & Motor
CUBESAT 6U, Unknown motor
Mass
~10 kg wet, 10 kg dry
Launch date (UTC)
2019-06-05 (6 years ago)
Launch vehicle
CHANG ZHENG 11
Launch site
Yellow Sea Launch Area, China (YSLA)
Object type
Unknown
Shape & HBR
Box + 2 Pan, 1 m
Radar Cross Section
0.126 m², Small (<0.1 m²)

Expand to show TLE details & history

TLE from 13 hours ago
0 OBJECT D
1 44313U 19032D   25184.03503033  .00060838  00000-0  83587-3 0  9996
2 44313  44.9904  34.0746 0015548 197.8289 162.2061 15.56386177335398
Epoch: 2025-07-03T00:50Z
TLE epoch observation values (Epoch: 2025-07-03T00:50:26.62Z)
Latitude
-0.00003°
Longitude
100.15609°
Altitude
408.156 km
Speed
7.662 km/s
True Right ascension
02h 16m 17s
True Declination
0° 00' 00"
Sunlit
Object was in daylight at epoch
Visualization orbit readout
Latitude
-30.44511°
Longitude
-47.22363°
Altitude
396.74 km
Speed
7.678 km/s
Apparent Right ascension
15h 17m 39s
Apparent Declination
-36° 22' 24"
Sunlit
Object is in full shadow
Visualization observer readout
Local Sidereal Time
01:54:36
Azimuth
275.65° WNW
Elevation
-73.332°
Doppler factor
1
Orbital elements
Apogee altitude
410.295 km
Perigee altitude
389.219 km
Semi-major axis
6,777.894 km
Eccentricity
0.00155
Inclination
44.9904°
RAAN
34.0746°
Arg. of periapsis
197.8289°
True anomaly
Unknown
Mean anomaly
162.2061°
Eccentric anomaly
Unknown
Mean motion
3.88956 °/min
Orbital period
92.56 mins
BSTAR
0.00083587
Loading maneuver chart data...
Loading SW <> Apogee altitude chart data...
Loading historical data...
Loading historical data...
Loading historical data...
Loading historical data...
Loading historical data...
Loading historical data...
Loading historical data...

OBJECT D Visibility forecast

Observer location: undefined°, undefined°

Span
Click to sort rows by Start time (UTC) header in descending order
Start Az.
Max El. time (UTC)
Max El. Az.
Max El.
End time (UTC)
End Az.
4 mins2025-07-03 18:02:39.588Z251.001° W2025-07-03 18:03:39.588Z263.167° W42.834°2025-07-03 18:06:39.588Z65.03° ENE
4 mins2025-07-03 19:39:39.588Z305.536° NW2025-07-03 19:40:39.588Z333.739° NNW27.384°2025-07-03 19:43:39.588Z57.386° ENE
4 mins2025-07-03 21:16:39.588Z311.481° NW2025-07-03 21:18:39.588Z24.08° NE33.071°2025-07-03 21:20:39.588Z78.961° E
4 mins2025-07-03 22:53:39.588Z275.418° WNW2025-07-03 22:55:39.588Z190.675° SSW36.063°2025-07-03 22:57:39.588Z138.857° SSE
|